[Date Prev][Date Next][Thread Prev][Thread Next] - [Date Index][Thread Index][Author Index]

2 Line ISS Keps 11-28



ISS
1 25544U 98067A   05332.05949074  .00012184  00000-0  93416-4 0  8386
2 25544 051.6444 141.0320 0008687 336.5301 172.9592 15.72536117401476
----
Via the sarex mailing list at AMSAT.ORG courtesy of AMSAT-NA.
To unsubscribe, send "unsubscribe sarex" to Majordomo@amsat.org



AMSAT Top AMSAT Home